Regional Weather Roundup
Issued by NWS

Home | Current Version | Previous Version | Text Only | Print | Product List | Glossary Off
Versions: 1 2 3 4 5 6 7 8 9 10 11 12 13 14 15 16 17 18 19 20 21 22 23 24 25 26 27 28 29 30 31 32 33 34 35 36 37 38 39 40 41 42 43 44 45 46 47 48 49 50

000
ASUS45 KABQ 112001
RWRNM
NEW MEXICO REGIONAL WEATHER ROUNDUP
NATIONAL WEATHER SERVICE ALBUQUERQUE NM
100 PM MST MON DEC 11 2017

NOTE: "FAIR" MEANS FEW OR NO CLOUDS BELOW 12,000 FEET AGL WITH NO
       SIGNIFICANT WEATHER OR OBSTRUCTIONS TO VISION.

      THIS PRODUCT IS RELEASED AS TWO VERSIONS.  ONE VERSION NEAR
      THE TOP OF THE HOUR CONTAINING PRELIMINARY DATA FROM ALBUQUERQUE
      AND OTHER STATIONS.  A FINAL VERSION WITH ADDITIONAL DATA IS
      ISSUED ABOUT 10 MINUTES AFTER THE HOUR.

NMZ501-503-504-510>518-112100-
NORTHWEST PLATEAU/NORTHCENTRAL MOUNTAINS

CITY           SKY/WX    TMP DP  RH WIND       PRES   REMARKS
FARMINGTON     FAIR      42   5  21 W6        30.43F
LOS ALAMOS     FAIR      52  -7   8 NE12G17   30.41F
SANTA FE       FAIR      54  -3   9 N13       30.37F
TAOS           FAIR      49   0  13 NW5       30.43F
ANGEL FIRE     FAIR      53  -2  10 CALM      30.42F

$$
NMZ402-403-502-505>509-112100-
WESTCENTRAL MOUNTAINS/SOUTHWEST MOUNTAINS

CITY           SKY/WX    TMP DP  RH WIND       PRES   REMARKS
GALLUP         FAIR      48  -1  13 VRB3      30.43F
GRANTS         FAIR      51  -2  11 N7        30.44S
SILVER CITY    FAIR      54   4  13 SE8       30.37F

$$
NMZ407-409-411-412-112100-
SOUTHERN DESERTS

CITY           SKY/WX    TMP DP  RH WIND       PRES   REMARKS
DEMING         FAIR      57   9  14 VRB3      30.35F
LAS CRUCES     FAIR      55   9  15 SE3       30.36F
ALAMOGORDO     FAIR      52  12  20 CALM      30.34F
T OR C         FAIR      50   4  15 CALM      30.35F

$$
NMZ519>523-112100-
CENTRAL VALLEYS/CENTRAL HIGHLANDS

CITY           SKY/WX    TMP DP  RH WIND       PRES   REMARKS
ALBUQUERQUE    PTSUNNY   45  -1  14 CALM      30.40F
DOUBLE EAGLE   MOSUNNY   52   3  14 CALM      30.40F
MORIARTY ARPT  FAIR      55   0  10 N14G20    30.37F
CLINES CORNERS FAIR      54   2  12 NW10      30.37F
BELEN          NOT AVBL
SOCORRO        NOT AVBL

$$
NMZ524>526-539-540-112100-
SOUTHCENTRAL MOUNTAINS

CITY           SKY/WX    TMP DP  RH WIND       PRES   REMARKS
RUIDOSO        NOT AVBL

$$
NMZ527>531-112100-
NORTHEAST HIGHLANDS/NORTHEAST PLAINS

CITY           SKY/WX    TMP DP  RH WIND       PRES   REMARKS
LAS VEGAS      FAIR      61  -5   7 E8        30.35F
RATON          FAIR      62  -7   6 S7        30.30F
CLAYTON        FAIR      60  -1   8 NE15      30.29F

$$
NMZ532>537-112100-
EASTCENTRAL PLAINS

CITY           SKY/WX    TMP DP  RH WIND       PRES   REMARKS
SANTA ROSA     FAIR      63   3   9 NE9       30.28F
TUCUMCARI      FAIR      64   0   7 E10       30.25F
CANNON AFB     FAIR      63   3   9 NE14      30.27S
CLOVIS AIRPORT FAIR      63   6  10 NE14      30.26F

$$
NMZ028-029-538-112100-
SOUTHEAST PLAINS

CITY           SKY/WX    TMP DP  RH WIND       PRES   REMARKS
ROSWELL        FAIR      59  15  18 S8        30.25F
ARTESIA        FAIR      59  10  14 VRB3      30.27F
CARLSBAD       FAIR      59  24  26 NE5       30.25F
HOBBS          SUNNY     70  -2   6 NW8       30.24F


$$




USA.gov is the U.S. government's official web portal to all federal, state and local government web resources and services.